Tracking 33485 objects as of 15-Mar-2026
HD Live streaming from Space Station
objects crossing your sky now

STARLINK-31999

Track STARLINK-31999 now!
10-day predictions
STARLINK-31999 is classified as:


NORAD ID: 60101
Int'l Code: 2024-117L
Perigee: 481.7 km
Apogee: 483.1 km
Inclination: 53.2 °
Period: 94.1 minutes
Semi major axis: 6853 km
RCS: Unknown
Launch date: June 23, 2024
Source: United States (US)
Launch site: AIR FORCE EASTERN TEST RANGE (AFETR)
Your satellite tracking list
Your tracking list is empty




NASA's NSSDC Master Catalog

Two Line Element Set (TLE):
1 60101U 24117L   26074.05122406 -.00001414  00000-0 -35645-4 0  9991
2 60101  53.1618  12.4854 0001018  78.0918 282.0197 15.30173310 97707
Source of the keplerian elements: AFSPC